Probability
0 0 0 0 0 0 0 0 0 0 0 0 0 0 0 0 0 0 0 0 0 0 0 0 0 0 0 0 0 0 0 0 0 0 0 0 0 0 0 0 0 0 0 0
0 0 0 0 0 0 0 0 0 0 0 0 0 0 0 0 0 0 0 0 0 0 0 0 0 0 0 0 0 0 0 0 0 0 0 0 0 0 0 0 0 0 0 0
0 0 0 0 0 0 0 0 0 0 0 0 0 0 0 0 0 0 0 0 0 0 0 0 0 0 0 0 0 0 0 0 0 0 0 0 0 0 0 0 0 0 0 0
0 0 0 0 0 0 0 0 0 0 0 0 0 0 0 0 0 0 0 0 0 0 0 0 0 0 0 0 0 0 0 0 0 0 0 0 0 0 0 0 0 0 0 0
0 0 0 0 0 0 0 0 0 0 0 0 0 0 0 0 0 0 0 0 0 0 0 0 0 0 0 0 0 0 0 0 0 0 0 0 0 0 0 0 0 0 0 0
0 0 0 0 0 0 0 0 0 0 0 0 0 0 0 0 0 0 0 0 0 0 0 0 0 0 0 0 0 0 0 0 0 0 0 0 0 0 0 0 0 0 0 0
0 0 0 0 0 0 0 0 0 0 0 0 0 0 0 0 0 0 0 0 0 0 0 0 0 0 0 0 0 0 0 0 0 0 0 0 0 0 0 0 0 0 0 0
0 0 0 0 0 0 0 0 0 0 0 0 0 0 0 0 0 0 0 0 0 0 0 0 0 0 0 0 0 0 0 0 0 0 0 0 0 0 0 0 0 0 0 0
0 0 0 0 0 0 0 0 0 0 0 0 0 0 0 0 0 0 0 0 0 0 0 0 0 0 0 0 0 0 0 0 0 0 0 0 0 0 0 0 0 0 0 0
0 0 0 0 0 0 0 0 0 0 0 0 0 0 0 0 0 0 0 0 0 0 0 0 0 0 0 0 0 0 0 0 0 0 0 0 0 0 0 0 0 0 0 0
0 0 0 0 0 0 0 0 0 0 0 0 0 0 0 0 0 0 0 0 0 0 0 0 0 0 0 0 0 0 0 0 0 0 0 0 0 0 0 0 0 0 0 0
0 0 0 0 0 0 0 0 0 0 0 0 0 0 0 0 0 0 0 0 0 0 0 0 0 0 0 0 0 0 0 0 0 0 0 0 0 0 0 0 0 0 0 0
0 0 0 0 0 0 0 0 0 0 0 0 0 0 0 0 0 0 0 0 0 0 0 0 0 0 0 0 0 0 0 0 0 0 0 0 0 0 0 0 0 0 0 0
0 0 0 0 0 0 0 0 0 0 0 0 0 0 0 0 0 0 0 0 0 0 0 0 0 0 0 0 0 0 0 0 0 0 0 0 0 0 0 0 0 0 0 0
0 0 0 0 0 0 0 0 0 0 0 0 0 0 0 0 0 0 0 0 0 0 0 0 0 0 0 0 0 0 0 0 0 0 0 0 0 0 0 0 0 0 0 0
0 0 0 0 0 0 0 0 0 0 0 0 0 0 0 0 0 0 0 0 0 0 0 0 0 0 0 0 0 0 0 0 0 0 0 0 0 0 0 0 0 0 0 0
0 0 0 0 0 0 0 0 0 0 0 0 0 0 0 0 0 0 0 0 0 0 0 0 0 0 0 0 0 0 0 0 0 0 0 0 0 0 0 0 0 0 0 0
0 0 0 0 0 0 0 0 0 0 0 0 0 0 0 0 0 0 0 0 0 0 0 0 0 0 0 0 0 0 0 0 0 0 0 0 0 0 0 0 0 0 0 0
0 0 0 0 0 0 0 0 0 0 0 0 0 0 0 0 0 0 0 0 0 0 0 0 0 0 0 0 0 0 0 0 0 0 0 0 0 0 0 0 0 0 0 0
0 0 0 0 0 0 0 0 0 0 0 0 0 0 0 0 0 0 0 0 0 0 0 0 0 0 0 0 0 0 0 0 0 0 0 0 0 0 0 0 0 0 0 0
0 0 0 0 0 0 0 0 0 0 0 0 0 0 0 0 0 0 0 0 0 0 0 0 0 0 0 0 0 0 0 0 0 0 0 0 0 0 0 0 0 0 0 0
0 0 0 0 0 0 0 0 0 0 0 0 0 0 0 0 0 0 0 0 0 0 0 0 0 0 0 0 0 0 0 0 0 0 0 0 0 0 0 0 0 0 0 0
0 0 0 0 0 0 0 0 0 0 0 0 0 0 0 0 0 0 0 0 0 0 0 0 0 0 0 0 0 0 0 0 0 0 0 0 0 0 0 0 0 0 0 0
0 0 0 0 0 0 0 0 0 0 0 0 0 0 0 0 0 0 0 0 0 0 0 0 0 0 0 0 0 0 0 0 0 0 0 0 0 0 0 0 0 0 0 0
0 0 0 0 0 0 0 0 0 0 0 0 0 0 0 0 0 0 0 0 0 0 0 0 0 0 0 0 0 0 0 0 0 0 0 0 0 0 0 0 0 0 0 0
0 0 0 0 0 0 0 0 0 0 0 0 0 0 0 0 0 0 0 0 0 0 0 0 0 0 0 0 0 0 0 0 0 0 0 0 0 0 0 0 0 0 0 0
Height
5626 5631 5635 5641 5646 5651 5656 5661 5666 5672 5675 5680 5685 5691 5696 5701 5706 5711 5716 5721 5725 5730 5734 5738 5741 5745 5748 5751 5754 5757 5759 5761 5762 5764 5766 5767 5768 5769 5770 5771 5771 5771 5771 5771
5620 5624 5629 5633 5637 5642 5647 5652 5657 5663 5667 5671 5677 5682 5688 5692 5698 5703 5708 5713 5718 5722 5726 5730 5734 5737 5741 5744 5747 5749 5752 5754 5756 5757 5759 5760 5761 5762 5763 5763 5764 5764 5764 5763
5612 5618 5621 5625 5629 5633 5639 5644 5650 5655 5659 5663 5668 5674 5680 5684 5689 5695 5700 5705 5709 5714 5718 5723 5726 5730 5733 5737 5739 5742 5744 5746 5748 5750 5751 5753 5754 5755 5756 5757 5757 5757 5756 5756
5605 5610 5613 5617 5622 5626 5632 5637 5642 5646 5651 5655 5660 5665 5673 5677 5682 5687 5692 5697 5701 5706 5710 5714 5718 5722 5726 5729 5731 5734 5736 5739 5741 5742 5744 5746 5747 5748 5749 5749 5749 5749 5749 5748
5599 5603 5606 5610 5616 5620 5625 5630 5634 5638 5642 5647 5652 5657 5665 5669 5674 5679 5684 5689 5693 5697 5702 5706 5710 5714 5718 5721 5724 5726 5729 5731 5733 5735 5737 5738 5739 5740 5741 5742 5742 5741 5741 5740
5594 5597 5601 5605 5610 5614 5618 5623 5626 5630 5634 5639 5645 5649 5656 5662 5667 5672 5676 5680 5685 5689 5693 5697 5702 5706 5709 5713 5716 5718 5721 5724 5726 5728 5729 5731 5732 5733 5734 5734 5734 5734 5733 5732
5588 5592 5595 5600 5604 5607 5611 5616 5620 5622 5626 5632 5638 5641 5649 5655 5660 5664 5668 5672 5676 5681 5685 5689 5693 5698 5701 5705 5708 5711 5714 5716 5718 5720 5722 5723 5724 5725 5726 5726 5726 5726 5725 5724
5584 5588 5591 5594 5598 5602 5606 5610 5615 5618 5621 5626 5631 5635 5643 5648 5652 5656 5660 5664 5668 5673 5677 5681 5685 5689 5693 5697 5700 5703 5705 5708 5710 5712 5714 5715 5716 5717 5718 5718 5718 5718 5717 5716
5580 5583 5587 5590 5594 5598 5600 5604 5609 5612 5616 5620 5624 5630 5636 5641 5644 5648 5652 5656 5660 5665 5669 5673 5677 5681 5685 5688 5691 5694 5697 5700 5702 5704 5706 5707 5708 5709 5710 5710 5709 5709 5708 5707
5575 5579 5582 5585 5589 5592 5596 5600 5603 5606 5610 5613 5618 5623 5629 5634 5637 5641 5644 5648 5652 5656 5660 5664 5668 5672 5676 5679 5683 5686 5688 5691 5694 5696 5698 5699 5700 5701 5701 5701 5701 5700 5700 5698
5571 5575 5578 5580 5583 5587 5591 5594 5597 5600 5604 5608 5612 5620 5623 5626 5630 5633 5637 5640 5644 5648 5652 5656 5660 5663 5667 5671 5674 5677 5680 5683 5685 5687 5689 5690 5691 5692 5692 5693 5692 5692 5691 5690
5567 5570 5573 5576 5579 5582 5585 5588 5592 5596 5599 5602 5606 5615 5615 5619 5622 5626 5629 5633 5636 5640 5644 5647 5651 5655 5658 5662 5665 5668 5671 5674 5676 5678 5680 5681 5682 5683 5683 5684 5683 5683 5682 5682
5564 5566 5568 5571 5575 5577 5580 5583 5586 5590 5593 5596 5600 5608 5608 5611 5614 5618 5622 5625 5629 5632 5636 5640 5643 5646 5650 5654 5657 5660 5663 5665 5667 5669 5671 5672 5673 5674 5674 5675 5675 5674 5674 5673
5560 5562 5565 5568 5570 5572 5575 5578 5581 5584 5587 5590 5594 5599 5602 5604 5607 5611 5614 5618 5621 5625 5628 5632 5635 5638 5642 5645 5648 5651 5654 5656 5658 5660 5662 5663 5664 5665 5665 5666 5666 5665 5665 5664
5555 5558 5560 5562 5564 5567 5570 5573 5575 5578 5581 5585 5589 5592 5595 5598 5601 5604 5607 5610 5614 5617 5620 5624 5627 5630 5634 5637 5640 5643 5646 5648 5650 5651 5653 5654 5655 5656 5656 5657 5657 5656 5656 5655
5551 5553 5555 5558 5560 5562 5564 5567 5570 5572 5575 5578 5582 5586 5589 5591 5594 5597 5600 5603 5606 5609 5613 5616 5619 5622 5626 5629 5632 5634 5637 5639 5641 5643 5644 5645 5646 5647 5647 5648 5648 5648 5647 5647
5547 5549 5551 5553 5555 5557 5560 5563 5565 5567 5570 5573 5576 5580 5582 5585 5588 5590 5593 5596 5599 5602 5605 5608 5611 5614 5617 5620 5623 5626 5628 5630 5632 5634 5635 5636 5637 5638 5638 5639 5639 5639 5638 5638
5543 5544 5546 5548 5551 5553 5558 5557 5559 5561 5564 5566 5569 5572 5575 5578 5581 5584 5587 5589 5592 5595 5598 5600 5603 5606 5609 5612 5615 5617 5619 5621 5623 5625 5626 5627 5628 5629 5630 5630 5630 5630 5630 5629
5538 5540 5542 5543 5545 5547 5551 5552 5553 5555 5558 5560 5563 5566 5569 5572 5575 5578 5580 5583 5585 5588 5590 5593 5595 5598 5600 5603 5606 5608 5611 5612 5614 5616 5617 5618 5619 5620 5621 5621 5622 5621 5621 5621
5534 5535 5537 5538 5539 5542 5546 5546 5547 5550 5552 5554 5556 5559 5562 5565 5569 5573 5574 5576 5579 5581 5583 5585 5588 5589 5592 5594 5597 5600 5602 5603 5605 5607 5608 5609 5611 5612 5613 5613 5613 5613 5613 5613
5530 5531 5532 5533 5534 5536 5539 5540 5542 5545 5547 5548 5550 5552 5555 5558 5562 5565 5566 5569 5571 5574 5576 5578 5580 5582 5584 5586 5588 5591 5593 5595 5597 5598 5600 5601 5602 5603 5604 5605 5605 5605 5606 5605
5525 5526 5527 5528 5529 5533 5533 5534 5536 5538 5540 5541 5543 5546 5548 5551 5553 5556 5559 5561 5564 5566 5568 5570 5572 5574 5576 5577 5579 5582 5584 5586 5588 5590 5591 5592 5594 5595 5596 5597 5597 5598 5598 5598
5521 5522 5522 5523 5526 5526 5526 5527 5529 5531 5533 5535 5537 5539 5541 5544 5546 5549 5551 5553 5556 5558 5560 5562 5564 5566 5567 5569 5571 5573 5575 5577 5579 5581 5582 5584 5585 5587 5588 5589 5589 5590 5590 5590
5516 5516 5516 5518 5519 5520 5521 5521 5523 5524 5526 5528 5530 5532 5535 5537 5539 5541 5543 5545 5547 5549 5551 5553 5555 5557 5559 5560 5562 5564 5566 5568 5570 5572 5574 5575 5577 5579 5580 5581 5582 5582 5583 5583
5511 5511 5511 5512 5513 5514 5515 5516 5517 5518 5519 5521 5523 5525 5527 5529 5531 5533 5535 5536 5538 5540 5541 5544 5546 5548 5550 5552 5553 5555 5557 5559 5561 5563 5565 5567 5569 5570 5572 5573 5574 5575 5576 5576
5505 5505 5506 5507 5507 5508 5509 5510 5511 5512 5513 5515 5517 5518 5520 5521 5523 5525 5526 5528 5529 5531 5532 5534 5536 5539 5541 5543 5545 5546 5548 5550 5553 5555 5556 5558 5560 5562 5564 5565 5566 5567 5568 5569
Wind_Speed
34 36 38 39 40 40 40 41 40 40 41 42 42 42 41 41 41 40 40 40 39 38 38 37 36 35 35 35 34 34 33 33 33 33 32 32 32 32 32 32 32 32 32 33
33 36 35 37 38 39 40 40 40 39 40 41 41 42 42 41 40 40 40 40 40 39 38 38 37 36 35 34 34 34 33 33 33 32 32 32 32 32 32 32 32 32 33 33
33 33 34 36 38 38 39 39 40 40 39 40 41 41 41 41 41 40 40 40 40 40 39 38 38 37 36 35 34 33 33 33 33 32 32 32 31 31 31 31 31 32 33 33
30 32 33 35 37 37 37 37 38 40 40 41 42 42 41 41 41 40 40 40 40 40 40 39 38 37 36 35 34 33 33 33 33 32 32 31 31 31 31 31 32 32 33 33
28 30 31 33 34 35 35 35 36 38 39 41 42 42 40 40 40 40 39 39 40 40 40 39 38 37 36 35 34 34 33 33 32 32 32 32 31 32 32 32 32 33 33 33
27 29 29 30 32 33 34 34 36 36 38 41 40 41 40 39 39 39 39 39 38 39 39 39 38 37 37 36 35 34 33 33 33 32 32 32 32 32 32 32 33 33 33 33
25 27 28 30 31 32 33 34 34 36 38 39 39 40 40 38 38 38 38 38 38 38 39 38 38 37 36 36 35 34 34 33 33 33 32 32 32 32 32 33 33 33 33 34
24 26 27 29 30 31 32 33 33 34 36 36 37 38 38 37 37 37 37 37 38 38 38 39 38 38 37 36 35 35 34 34 34 33 33 33 33 33 33 33 33 33 33 34
22 24 26 27 27 29 30 32 32 33 34 35 36 36 35 34 34 35 35 36 37 37 38 39 38 38 37 36 36 35 35 35 34 34 34 34 33 33 33 33 33 33 34 34
21 23 25 26 28 29 29 31 32 32 33 34 35 35 34 33 32 33 34 35 36 37 37 38 38 38 38 37 36 36 36 35 35 35 35 34 34 33 33 33 33 34 34 34
20 21 23 25 27 28 28 30 32 31 31 33 34 34 33 32 32 33 33 33 35 36 36 37 38 38 37 37 36 36 36 36 35 35 35 34 34 34 33 33 33 33 33 33
21 21 22 22 23 25 27 29 30 30 30 31 32 32 31 31 32 32 32 32 33 35 35 36 37 37 37 37 36 36 36 36 35 35 35 35 34 34 34 34 33 33 33 33
21 22 23 24 24 23 25 28 29 29 29 30 31 30 30 30 31 32 32 33 33 33 34 35 36 36 36 36 36 36 36 36 36 35 35 35 34 34 34 34 34 33 33 33
21 22 23 24 24 24 24 25 28 29 29 29 29 28 29 29 29 30 31 32 33 33 33 34 34 35 36 36 35 35 36 36 36 36 35 35 35 35 34 34 34 33 34 34
22 22 22 23 24 24 24 24 26 28 28 29 27 27 27 27 28 28 29 30 31 32 33 33 34 34 35 34 35 35 35 35 35 35 35 35 35 35 34 34 34 34 34 34
21 22 22 22 24 24 24 25 25 27 28 28 28 27 26 27 27 28 28 29 30 32 33 33 34 34 34 34 34 34 35 35 35 35 35 35 35 34 34 34 34 34 34 34
20 21 22 22 23 24 25 24 25 26 27 28 28 27 27 27 28 29 29 29 29 30 31 32 34 34 33 33 34 34 34 34 34 34 34 34 35 34 33 34 34 34 34 34
20 20 21 23 24 24 23 25 25 26 27 28 27 27 28 28 28 28 29 29 28 29 30 32 33 34 34 34 34 34 34 34 34 34 34 34 34 34 33 33 33 33 33 32
19 21 21 22 23 23 23 24 24 26 26 27 27 27 28 28 28 28 28 29 29 29 29 30 32 33 34 34 34 34 34 34 34 34 33 33 33 33 32 32 32 31 31 30
19 20 21 22 22 22 22 23 24 25 25 27 28 28 28 28 29 28 29 29 29 29 29 30 31 32 34 34 35 34 34 34 34 34 33 32 32 32 32 31 30 30 29 29
18 19 21 22 23 22 22 23 23 24 24 26 27 28 29 29 29 29 29 30 30 30 30 30 30 31 32 34 34 34 34 33 33 33 33 33 32 31 30 30 29 29 28 28
18 19 20 21 22 22 22 22 23 23 23 24 26 27 28 29 30 30 30 30 30 30 31 31 30 31 31 32 33 33 33 33 33 33 33 32 32 31 30 30 29 28 28 27
19 20 20 21 21 21 22 22 23 23 24 24 25 26 27 27 28 30 30 30 30 31 31 32 32 31 31 31 32 32 33 34 34 34 33 32 32 31 30 30 29 28 27 27
19 20 21 21 21 21 22 22 23 24 25 25 25 26 27 27 27 28 29 29 29 30 31 32 32 32 31 31 31 31 32 33 33 33 33 32 32 31 30 30 29 28 27 26
21 21 21 21 21 22 22 22 23 24 25 25 25 26 26 26 26 27 27 28 29 29 31 31 31 31 31 31 31 31 31 32 32 32 32 32 31 30 29 29 28 28 27 26
22 22 22 22 22 22 22 22 22 23 23 24 24 24 24 25 25 25 26 27 28 28 29 30 30 31 31 30 30 31 31 31 31 30 30 30 30 30 29 28 27 27 26 26
Wind_Direction
235 234 234 233 232 233 233 233 232 232 233 233 232 232 232 232 232 232 232 233 233 234 235 237 238 239 241 242 244 246 248 249 251 253 256 257 258 259 260 263 265 268 269 271
234 234 234 233 232 232 233 232 232 231 232 233 232 232 232 232 232 232 233 233 234 234 235 237 238 239 241 243 244 246 248 249 251 253 255 257 257 258 260 263 265 268 271 273
234 235 234 233 232 232 232 233 232 232 233 234 234 232 232 233 232 232 233 233 234 234 235 236 237 239 241 243 244 246 247 249 250 252 254 256 257 258 261 263 266 269 272 274
232 232 233 233 231 231 231 232 232 233 234 234 234 234 232 233 233 233 234 234 234 234 235 236 237 239 241 243 244 245 246 248 249 251 253 255 258 259 261 263 266 269 272 275
232 232 233 232 230 230 230 230 232 233 234 235 233 235 231 232 233 233 234 235 235 235 235 236 237 239 241 242 244 245 245 246 248 251 253 256 258 259 260 263 266 269 272 275
234 232 232 231 229 230 230 230 232 234 235 235 233 235 231 231 232 233 234 235 235 235 235 236 237 238 240 241 243 245 246 247 248 251 254 256 258 259 261 264 267 270 272 275
234 231 231 229 228 229 231 230 232 234 234 235 233 235 233 232 233 234 235 235 235 235 235 236 237 238 239 241 243 245 246 247 249 251 253 256 258 260 262 265 268 271 273 275
234 232 231 229 230 230 232 231 233 235 236 235 234 235 235 234 235 236 236 236 236 236 235 235 236 237 239 241 243 244 246 248 250 251 253 256 259 261 263 265 268 270 273 275
237 233 231 230 230 230 230 231 233 236 237 238 237 237 237 237 237 238 238 237 237 236 236 236 237 238 239 240 242 244 246 248 249 251 253 256 259 261 263 265 268 270 273 275
240 235 232 230 230 231 232 233 232 234 238 238 237 237 238 238 238 239 238 237 236 236 236 236 237 238 239 240 242 244 246 248 250 252 254 256 258 261 263 266 268 271 273 275
240 236 232 232 233 233 232 231 231 234 237 238 237 237 238 239 238 237 237 237 237 237 236 237 238 239 240 241 242 244 246 248 250 252 254 256 258 260 263 266 269 272 274 274
242 238 235 233 233 234 235 233 232 233 236 238 239 239 240 241 239 237 236 237 237 237 237 237 237 239 240 242 243 244 245 247 250 252 254 257 258 260 263 265 268 271 273 274
243 239 238 235 233 233 234 233 234 235 236 237 239 239 240 241 240 238 237 236 237 237 238 238 238 239 240 242 243 244 246 247 250 252 254 256 258 260 263 264 267 270 272 273
243 242 241 242 240 239 237 236 235 236 236 237 238 239 239 239 239 237 237 237 237 236 237 238 239 240 240 242 243 245 246 247 249 252 254 256 258 260 262 264 266 269 271 272
244 244 243 243 242 241 241 239 238 238 237 238 236 236 236 238 238 237 237 237 237 237 237 239 240 240 241 242 244 245 246 248 250 252 254 256 258 260 262 264 266 268 270 271
244 245 245 244 243 242 242 241 240 239 238 237 236 235 237 237 237 238 238 239 238 238 238 239 240 241 241 242 244 245 246 248 251 253 255 257 258 260 262 264 266 268 269 270
246 247 247 246 245 245 243 242 243 243 240 239 237 237 237 237 238 238 239 239 239 238 238 238 240 240 240 242 243 245 247 249 251 253 255 257 258 261 262 263 266 267 268 270
249 251 250 248 247 247 246 244 244 243 241 241 239 238 238 238 237 238 238 238 238 239 238 239 240 241 241 242 244 246 248 250 252 254 255 257 258 260 261 264 266 267 269 270
252 252 251 251 250 248 245 247 246 245 242 241 240 238 238 239 238 238 238 237 238 239 241 241 242 243 244 243 244 246 249 251 252 254 255 256 258 259 261 264 265 266 268 270
255 254 252 252 253 252 247 249 249 248 245 242 241 240 240 240 240 238 240 241 241 243 243 244 244 245 246 246 246 247 249 251 252 253 255 256 257 259 262 263 264 266 267 268
258 255 254 254 254 253 250 249 248 247 245 244 243 241 242 241 241 239 241 242 243 244 245 245 246 246 247 247 248 248 250 250 251 253 255 257 258 260 261 262 264 266 268 269
257 256 255 255 255 253 253 252 249 248 245 244 243 242 243 242 241 242 244 245 245 246 247 246 247 248 248 249 249 249 250 250 251 253 255 256 257 259 260 261 263 265 267 269
259 258 256 255 255 255 255 254 251 248 245 243 242 243 244 243 243 244 246 247 248 248 248 249 249 249 250 251 250 250 250 251 252 252 254 255 256 257 259 260 262 264 266 267
260 260 258 255 253 254 254 253 252 250 247 245 244 245 245 244 244 245 247 248 250 250 250 249 249 250 251 252 251 250 250 251 252 253 253 254 255 256 258 260 262 262 264 265
262 261 259 257 254 253 253 254 253 251 249 247 246 246 246 245 245 246 247 248 250 252 251 250 249 250 251 251 251 251 251 251 252 253 253 252 252 255 257 258 260 261 262 262
263 261 259 258 256 253 252 252 251 250 249 248 248 249 249 247 248 249 249 250 251 251 250 248 248 249 249 250 251 251 250 250 250 251 250 251 253 254 256 258 259 260 260 261